[[{"header":{"parameterUnit":"m.s-1","parameterCategory":1,"la1":30.2991,"la2":30.254,"lo1":-89.0895,"lo2":-89.0444,"dy":0.0017,"dx":0.0017,"nx":28,"ny":28,"refTime":"2023-08-31T21:00:00:Z","depth":0,"parameterNumber":2,"parameterNumberName":"U-component_of_WINDS"},"data":[0,0,0,0,0,0,0,0,0,0,0,0,0,0,0,0,0,0,0,0,0,0,0,0,0,0,0,0,0,0,0,0,0,0,0,0,0,0,0,0,0,0,0,0,0,0,0,0,0,0,0,0,0,0,0,0,0,0,-0.372,-0.372,0,-0.3726,-0.3726,-0.3726,-0.3717,-0.3717,-0.3716,-0.3716,-0.3723,-0.3723,-0.3724,0,0,0,0,0,0,0,0,0,0,0,0,0,-0.3698,-0.3699,-0.372,-0.372,-0.372,-0.3726,-0.3726,-0.3726,-0.3717,-0.3717,-0.3716,-0.3716,-0.3722,-0.3723,-0.3724,0,0,0,0,0,0,0,0,0,0,0,0,0,-0.3707,-0.3699,-0.372,-0.3716,-0.3716,-0.3726,-0.3726,-0.3726,-0.3717,-0.3717,-0.3716,-0.3716,-0.3722,-0.3723,-0.3724,-0.3738,0,0,-0.3726,-0.3726,0,0,0,0,0,0,0,0,-0.3706,-0.3707,-0.3716,-0.3716,-0.3716,-0.372,-0.3721,-0.373,-0.3717,-0.3717,-0.3716,-0.3715,-0.3722,-0.3723,-0.3725,-0.3739,-0.3739,-0.3726,-0.3726,-0.3727,-0.3727,0,0,0,0,0,0,0,-0.3706,-0.3707,-0.3722,-0.3716,-0.3716,-0.3714,-0.3714,-0.3723,-0.3722,-0.3717,-0.3716,-0.3717,-0.3722,-0.3725,-0.3725,-0.3739,-0.3726,-0.3727,-0.3727,-0.3727,-0.3764,-0.3764,0,0,0,0,0,0,-0.3705,-0.3707,-0.3722,-0.3722,-0.371,-0.3715,-0.3715,-0.3719,-0.3722,-0.3722,-0.3717,-0.3716,-0.3724,-0.3725,-0.3726,-0.3742,-0.3727,-0.3727,-0.3728,-0.3763,-0.3764,-0.3765,0,0,0,0,0,0,-0.3705,-0.3707,-0.3722,-0.3714,-0.3716,-0.3715,-0.372,-0.372,-0.3722,-0.3722,-0.3722,-0.372,-0.3723,-0.3725,-0.3735,-0.3742,-0.3728,-0.3728,-0.3763,-0.3764,-0.3764,-0.3776,0,0,0,0,0,0,-0.3704,-0.3707,-0.3712,-0.3715,-0.3716,-0.3731,-0.3721,-0.372,-0.3724,-0.3723,-0.3725,-0.3725,-0.3723,-0.3734,-0.3736,-0.3743,-0.3729,-0.3762,-0.3763,-0.3764,-0.3775,-0.3777,-0.3779,0,0,0,0,0,-0.3704,-0.3716,-0.3713,-0.3715,-0.3723,-0.3732,-0.3733,-0.373,-0.3724,-0.373,-0.373,-0.3725,-0.3741,-0.3735,-0.3737,-0.3745,-0.3762,-0.3763,-0.3764,-0.3774,-0.3777,-0.3779,0,0,0,0,0,0,-0.3715,-0.3716,-0.3713,-0.3726,-0.3729,-0.373,-0.3737,-0.3733,-0.3738,-0.3737,-0.3733,-0.3734,-0.3745,-0.3746,-0.3739,-0.3759,-0.375,-0.3752,-0.3758,-0.376,-0.3762,-0.3761,-0.373,0,0,0,0,0,-0.3718,-0.3725,-0.3726,-0.3737,-0.3739,-0.3738,-0.3741,-0.3739,-0.3742,-0.3743,-0.3744,-0.3747,-0.3753,-0.3756,-0.3762,-0.3775,-0.3775,-0.3782,-0.3784,-0.3785,-0.3787,-0.3793,-0.3796,-0.3769,-0.3769,-0.3768,0,0,-0.3726,-0.3728,-0.3732,-0.3739,-0.3741,-0.3748,-0.3739,-0.3746,-0.3751,-0.3744,-0.3754,-0.3755,-0.3758,-0.377,-0.3775,-0.3771,-0.3794,-0.3787,-0.3788,-0.3788,-0.3795,-0.3797,-0.38,-0.3769,-0.3769,-0.3769,0,0,-0.3745,-0.3747,-0.3756,-0.3758,-0.3761,-0.376,-0.3763,-0.3765,-0.3765,-0.3775,-0.3769,-0.3775,-0.3785,-0.3787,-0.379,-0.3809,-0.3804,-0.381,-0.3821,-0.3827,-0.383,-0.3831,-0.3838,-0.384,-0.3812,-0.3812,-0.3812,0,-0.3754,-0.3764,-0.3761,-0.3769,-0.3772,-0.3766,-0.3775,-0.3778,-0.3782,-0.3784,-0.378,-0.3792,-0.3794,-0.3806,-0.381,-0.3813,-0.3815,-0.381,-0.3829,-0.3831,-0.3833,-0.3839,-0.3841,-0.3813,-0.3813,-0.3812,-0.3812,0,-0.3776,-0.3783,-0.379,-0.3794,-0.3798,-0.3807,-0.3805,-0.3809,-0.3807,-0.3806,-0.3816,-0.3818,-0.3823,-0.3826,-0.3824,-0.3838,-0.3835,-0.383,-0.3822,-0.3836,-0.3842,-0.3844,-0.3814,-0.3813,-0.3813,-0.3813,0,0,-0.38,-0.3803,-0.3806,-0.3808,-0.3811,-0.3816,-0.3824,-0.3829,-0.3833,-0.3836,-0.3843,-0.3851,-0.3847,-0.3849,-0.3847,-0.3853,-0.3867,-0.3847,-0.3847,-0.3851,-0.3882,-0.3886,-0.3888,-0.3864,-0.3865,-0.3865,-0.3882,0,-0.3818,-0.3832,-0.383,-0.3843,-0.3849,-0.3844,-0.3851,-0.3853,-0.3853,-0.3858,-0.3858,-0.3864,-0.3857,-0.3859,-0.3864,-0.3864,-0.3873,-0.3863,-0.387,-0.387,-0.3869,-0.3891,-0.3895,-0.3911,-0.3884,-0.3884,-0.3885,0,-0.3841,-0.3845,-0.3859,-0.386,-0.3863,-0.3869,-0.3874,-0.3879,-0.3881,-0.3881,-0.3884,-0.388,-0.3888,-0.388,-0.389,-0.3883,-0.3886,-0.3887,-0.3887,-0.3887,-0.3878,-0.3892,-0.3916,-0.3918,-0.3888,-0.3888,-0.3887,0,-0.3857,-0.3866,-0.3875,-0.3877,-0.3879,-0.3884,-0.3885,-0.3887,-0.389,-0.3894,-0.3896,-0.3901,-0.3903,-0.3907,-0.3905,-0.3899,-0.3916,-0.3907,-0.3915,-0.3915,-0.3919,-0.3918,-0.3943,-0.3921,-0.3921,-0.3921,-0.3921,0,-0.3876,-0.3885,-0.3882,-0.3888,-0.3898,-0.3895,-0.3904,-0.3905,-0.3907,-0.3912,-0.3908,-0.3913,-0.391,-0.3915,-0.3914,-0.3922,-0.3924,-0.3923,-0.3923,-0.3923,-0.3923,-0.3925,-0.3923,-0.3922,-0.3921,-0.3921,-0.3921,0,-0.3896,-0.3894,-0.3904,-0.3905,-0.3906,-0.3913,-0.3914,-0.3919,-0.3919,-0.3926,-0.3927,-0.3926,-0.3932,-0.393,-0.3937,-0.3936,-0.3946,-0.3945,-0.3946,-0.3945,-0.3953,-0.3952,-0.3979,-0.3982,-0.3958,-0.3959,-0.3959,0,-0.3908,-0.3915,-0.3917,-0.392,-0.3921,-0.3927,-0.393,-0.3927,-0.3931,-0.3934,-0.3939,-0.3944,-0.3948,-0.3958,-0.3957,-0.3962,-0.396,-0.3969,-0.3961,-0.3961,-0.396,-0.3959,-0.396,-0.3971,-0.3971,-0.3971,-0.3971,0,-0.393,-0.3929,-0.3934,-0.3938,-0.3942,-0.3945,-0.3948,-0.3951,-0.3949,-0.3953,-0.3959,-0.3962,-0.3968,-0.3973,-0.3977,-0.3978,-0.3974,-0.3974,-0.3976,-0.3977,-0.3977,-0.3976,-0.395,-0.3973,-0.3973,-0.3973,-0.3973,-0.3973,-0.3946,-0.3951,-0.3953,-0.3959,-0.3961,-0.3963,-0.3968,-0.3968,-0.3973,-0.3978,-0.3976,-0.3982,-0.3984,-0.399,-0.3991,-0.3996,-0.3993,-0.3996,-0.3996,-0.3997,-0.3998,-0.3976,-0.3997,-0.3997,-0.3997,-0.3997,-0.3997,0,-0.3967,-0.3968,-0.3973,-0.3977,-0.3981,-0.3977,-0.398,-0.3984,-0.399,-0.3992,-0.3996,-0.4002,-0.4007,-0.4008,-0.4012,-0.4016,-0.4014,-0.4017,-0.4017,-0.4017,-0.4001,-0.3998,-0.4019,-0.4019,-0.4019,-0.4019,-0.4019,-0.4019,-0.3979,-0.3988,-0.3987,-0.3996,-0.3997,-0.4003,-0.4005,-0.4008,-0.4009,-0.4017,-0.4021,-0.4021,-0.4022,-0.4027,-0.4031,-0.4031,-0.4033,-0.4036,-0.4035,-0.402,-0.4018,-0.4016,-0.4014,-0.4037,-0.4037,-0.4051,-0.4051,-0.4051]},{"header":{"parameterUnit":"m.s-1","parameterCategory":1,"la1":30.2991,"la2":30.254,"lo1":-89.0895,"lo2":-89.0444,"dy":0.0017,"dx":0.0017,"nx":28,"ny":28,"refTime":"2023-08-31T21:00:00:Z","depth":0,"parameterNumber":3,"parameterNumberName":"V-component_of_WINDS"},"data":[0,0,0,0,0,0,0,0,0,0,0,0,0,0,0,0,0,0,0,0,0,0,0,0,0,0,0,0,0,0,0,0,0,0,0,0,0,0,0,0,0,0,0,0,0,0,0,0,0,0,0,0,0,0,0,0,0,0,-0.5327,-0.5327,0,-0.5337,-0.5337,-0.5338,-0.532,-0.532,-0.5319,-0.5319,-0.5328,-0.5328,-0.5329,0,0,0,0,0,0,0,0,0,0,0,0,0,-0.5292,-0.5293,-0.5327,-0.5327,-0.5327,-0.5337,-0.5337,-0.5338,-0.5321,-0.532,-0.5319,-0.5318,-0.5327,-0.5328,-0.5329,0,0,0,0,0,0,0,0,0,0,0,0,0,-0.5305,-0.5293,-0.5327,-0.532,-0.5319,-0.5337,-0.5337,-0.5338,-0.5321,-0.532,-0.5319,-0.5318,-0.5327,-0.5328,-0.5329,-0.5354,0,0,-0.5333,-0.5334,0,0,0,0,0,0,0,0,-0.5304,-0.5306,-0.5321,-0.532,-0.532,-0.5327,-0.5328,-0.5343,-0.5321,-0.532,-0.5319,-0.5318,-0.5328,-0.5329,-0.5333,-0.5354,-0.5355,-0.5333,-0.5334,-0.5334,-0.5335,0,0,0,0,0,0,0,-0.5303,-0.5306,-0.5331,-0.5321,-0.532,-0.5316,-0.5317,-0.5331,-0.5329,-0.532,-0.5319,-0.532,-0.5328,-0.5332,-0.5333,-0.5355,-0.5333,-0.5334,-0.5335,-0.5335,-0.54,-0.5401,0,0,0,0,0,0,-0.5304,-0.5305,-0.5331,-0.5331,-0.531,-0.5318,-0.5319,-0.5325,-0.5329,-0.5328,-0.5321,-0.532,-0.533,-0.5332,-0.5333,-0.5364,-0.5334,-0.5335,-0.5336,-0.5399,-0.54,-0.5401,0,0,0,0,0,0,-0.5303,-0.5306,-0.533,-0.5318,-0.5321,-0.5319,-0.5327,-0.5326,-0.533,-0.5329,-0.5329,-0.5326,-0.533,-0.5332,-0.535,-0.5364,-0.5336,-0.5337,-0.5398,-0.5399,-0.5401,-0.5425,0,0,0,0,0,0,-0.5302,-0.5306,-0.5315,-0.5318,-0.5321,-0.5347,-0.5328,-0.5327,-0.5333,-0.5331,-0.5334,-0.5333,-0.5329,-0.5348,-0.5351,-0.5365,-0.5338,-0.5396,-0.5398,-0.54,-0.5423,-0.5427,-0.5431,0,0,0,0,0,-0.5301,-0.5321,-0.5316,-0.5319,-0.5333,-0.5347,-0.5349,-0.5344,-0.5334,-0.5343,-0.5343,-0.5333,-0.5362,-0.535,-0.5353,-0.5368,-0.5395,-0.5398,-0.54,-0.5421,-0.5427,-0.5431,0,0,0,0,0,0,-0.5318,-0.5321,-0.5315,-0.5337,-0.5342,-0.5345,-0.5356,-0.535,-0.5357,-0.5355,-0.5348,-0.5349,-0.5369,-0.537,-0.5357,-0.5393,-0.5377,-0.538,-0.5392,-0.5397,-0.5401,-0.5401,-0.5339,0,0,0,0,0,-0.5325,-0.5336,-0.5338,-0.5357,-0.536,-0.5358,-0.5364,-0.536,-0.5365,-0.5367,-0.5368,-0.5373,-0.5383,-0.539,-0.5399,-0.5423,-0.5424,-0.5435,-0.5439,-0.5442,-0.5445,-0.546,-0.5465,-0.5409,-0.5409,-0.5409,0,0,-0.5338,-0.5341,-0.5348,-0.5361,-0.5364,-0.5377,-0.536,-0.5373,-0.5383,-0.5368,-0.5387,-0.5388,-0.5393,-0.5415,-0.5424,-0.5416,-0.5461,-0.5445,-0.5448,-0.5449,-0.5463,-0.5468,-0.5473,-0.541,-0.541,-0.541,0,0,-0.5369,-0.5372,-0.5389,-0.5393,-0.54,-0.5399,-0.5403,-0.5407,-0.5407,-0.5425,-0.5416,-0.5427,-0.5444,-0.5449,-0.5453,-0.5489,-0.5481,-0.5491,-0.5513,-0.5527,-0.5532,-0.5536,-0.555,-0.5556,-0.5494,-0.5494,-0.5494,0,-0.5384,-0.5404,-0.5398,-0.5414,-0.542,-0.5409,-0.5427,-0.5431,-0.544,-0.5445,-0.5435,-0.5459,-0.5461,-0.5485,-0.5494,-0.5497,-0.5503,-0.5492,-0.5532,-0.5536,-0.5539,-0.5553,-0.5558,-0.5496,-0.5496,-0.5495,-0.5495,0,-0.5424,-0.5437,-0.545,-0.5461,-0.5468,-0.5485,-0.5482,-0.5491,-0.5486,-0.5486,-0.5506,-0.5508,-0.5519,-0.5524,-0.5519,-0.5548,-0.5543,-0.5533,-0.5517,-0.5546,-0.5559,-0.5564,-0.5498,-0.5497,-0.5497,-0.5497,0,0,-0.5465,-0.5474,-0.5479,-0.5485,-0.5492,-0.5503,-0.5519,-0.553,-0.5539,-0.5545,-0.556,-0.5575,-0.5567,-0.5572,-0.5568,-0.558,-0.5611,-0.5569,-0.5569,-0.5578,-0.5645,-0.5655,-0.5661,-0.5605,-0.5606,-0.5607,-0.5646,0,-0.5498,-0.5528,-0.5524,-0.5553,-0.5566,-0.5556,-0.5571,-0.5577,-0.5578,-0.5589,-0.5589,-0.5602,-0.5588,-0.5592,-0.5604,-0.5605,-0.5625,-0.5601,-0.562,-0.562,-0.5621,-0.5667,-0.5676,-0.5713,-0.565,-0.5651,-0.5652,0,-0.554,-0.555,-0.558,-0.5588,-0.5593,-0.5606,-0.5618,-0.5629,-0.5636,-0.5635,-0.5643,-0.5637,-0.5654,-0.5636,-0.5661,-0.5645,-0.5652,-0.5654,-0.5655,-0.5658,-0.5639,-0.5673,-0.5724,-0.573,-0.5659,-0.5659,-0.5658,0,-0.5571,-0.5591,-0.5613,-0.5618,-0.5626,-0.5636,-0.564,-0.5646,-0.5654,-0.5663,-0.5669,-0.568,-0.5686,-0.5695,-0.5693,-0.568,-0.5718,-0.57,-0.572,-0.572,-0.5729,-0.5729,-0.5784,-0.5731,-0.5731,-0.5731,-0.573,0,-0.5608,-0.5628,-0.5627,-0.564,-0.5662,-0.5658,-0.568,-0.5682,-0.5688,-0.5702,-0.5693,-0.5706,-0.5701,-0.5714,-0.5712,-0.5734,-0.5736,-0.5737,-0.5737,-0.5739,-0.5739,-0.5745,-0.5743,-0.5732,-0.5732,-0.5731,-0.5731,0,-0.5646,-0.5646,-0.567,-0.5676,-0.5678,-0.5694,-0.57,-0.5713,-0.5713,-0.5731,-0.5735,-0.5736,-0.5751,-0.5749,-0.5765,-0.5764,-0.5792,-0.5787,-0.579,-0.5789,-0.581,-0.5809,-0.5872,-0.5881,-0.582,-0.582,-0.5821,0,-0.5671,-0.5686,-0.5695,-0.5705,-0.571,-0.5724,-0.5733,-0.573,-0.5739,-0.575,-0.5762,-0.5776,-0.5788,-0.5813,-0.5815,-0.5828,-0.5824,-0.5846,-0.5826,-0.5829,-0.5827,-0.5827,-0.583,-0.585,-0.5851,-0.5851,-0.5852,0,-0.5717,-0.5717,-0.573,-0.5744,-0.5755,-0.5765,-0.5775,-0.5783,-0.5781,-0.5792,-0.5808,-0.5817,-0.5835,-0.585,-0.5863,-0.5866,-0.586,-0.5858,-0.5863,-0.5867,-0.5869,-0.587,-0.5802,-0.5856,-0.5856,-0.5856,-0.5855,-0.5855,-0.575,-0.5764,-0.5774,-0.5789,-0.5796,-0.5806,-0.5819,-0.5822,-0.5836,-0.5851,-0.5848,-0.5867,-0.5875,-0.5892,-0.5897,-0.5912,-0.5904,-0.5911,-0.5913,-0.5916,-0.592,-0.5865,-0.5913,-0.5913,-0.5913,-0.5913,-0.5913,0,-0.5797,-0.5803,-0.5817,-0.5832,-0.5845,-0.5838,-0.5848,-0.586,-0.5876,-0.5885,-0.5897,-0.5917,-0.5932,-0.5936,-0.595,-0.5962,-0.5959,-0.5966,-0.5966,-0.5967,-0.5924,-0.5919,-0.5968,-0.5968,-0.5968,-0.5968,-0.5968,-0.5968,-0.5823,-0.5847,-0.5848,-0.5876,-0.5882,-0.5901,-0.5908,-0.5917,-0.5925,-0.5947,-0.5961,-0.5963,-0.597,-0.5986,-0.5999,-0.6,-0.6007,-0.6015,-0.6015,-0.5975,-0.597,-0.5965,-0.596,-0.6016,-0.6016,-0.6057,-0.6057,-0.6058]}]]